Date String (YYYY-MM-DD hh:mm:ss) UTC,Instrument flags,Ambient pressure (hPa),Sample flow (lpm),Bypass flow (lpm),Sample temperature (°C),Ambient temperature (°C),ASC tube jacket temperature (°C),LED temperature (°C),Box temperature (°C),Sample RH (%),Span deviation,Mass concentration (μg/m³),Mass concentration (μg/m³),Mass concentration (μg/m³)
DateTimeUTC,F1_M11,P_M11,Q1_M11,Q2_M11,T1_M11,T2_M11,T3_M11,T4_M11,T5_M11,U1_M11,ZSPAN_M11,X0_M11,X2_M11,X1_M11
2022-04-11 21:00:00,,0809.7,5.00,0.00,26.5,25.9,00.0,35.3,28.4,07.9,0000.0,0024.02,0006.67,0003.09
2022-04-11 21:01:00,,0809.7,4.99,0.00,26.5,25.9,00.0,35.3,28.4,07.3,0000.0,0024.65,0006.62,0003.05
2022-04-11 21:02:00,,0809.7,5.01,0.00,26.5,25.9,00.0,35.3,28.5,07.6,0000.0,0025.00,0006.62,0003.05
2022-04-11 21:03:00,,0809.7,4.99,0.00,26.6,25.9,00.0,35.3,28.5,07.5,0000.0,0025.55,0006.63,0003.04
2022-04-11 21:04:00,,0809.7,5.00,0.00,26.6,25.9,00.0,35.3,28.5,07.5,0000.0,0026.27,0006.71,0003.04
2022-04-11 21:05:00,,0809.7,4.99,0.00,26.6,25.9,00.0,35.4,28.5,07.7,0000.0,0026.12,0006.77,0003.03
2022-04-11 21:06:00,,0809.7,5.01,0.00,26.6,26.0,00.0,35.4,28.5,07.9,0000.0,0026.97,0006.72,0003.04
2022-04-11 21:07:00,,0809.7,4.99,0.00,26.6,26.0,00.0,35.4,28.5,07.4,0000.0,0026.29,0006.74,0003.06
2022-04-11 21:08:00,,0809.6,5.00,0.00,26.6,26.0,00.0,35.4,28.5,07.3,0000.0,0026.46,0006.71,0003.08
2022-04-11 21:09:00,,0809.4,5.00,0.00,26.6,26.0,00.0,35.4,28.5,07.2,0000.0,0027.11,0006.68,0003.07
2022-04-11 21:10:00,,0809.5,5.01,0.00,26.6,25.9,00.0,35.4,28.5,07.3,0000.0,0026.82,0006.60,0003.05
2022-04-11 21:11:00,,0809.5,4.99,0.00,26.6,26.0,00.0,35.4,28.5,07.8,0000.0,0027.41,0006.63,0003.04
2022-04-11 21:12:00,,0809.5,4.99,0.00,26.7,26.0,00.0,35.5,28.5,07.4,0000.0,0027.63,0006.66,0003.05
2022-04-11 21:13:00,,0809.4,5.01,0.00,26.7,26.0,00.0,35.5,28.5,07.2,0000.0,0027.61,0006.68,0003.06
2022-04-11 21:14:00,,0809.4,5.01,0.00,26.7,26.0,00.0,35.5,28.5,07.2,0000.0,0027.01,0006.68,0003.07
2022-04-11 21:15:00,,0809.4,4.99,0.00,26.7,26.0,00.0,35.5,28.6,07.5,0000.0,0027.55,0006.71,0003.10
2022-04-11 21:16:00,,0809.3,5.00,0.00,26.7,26.0,00.0,35.5,28.6,07.5,0000.0,0028.09,0006.69,0003.11
2022-04-11 21:17:00,,0809.3,5.00,0.00,26.7,26.0,00.0,35.5,28.6,07.5,0000.0,0027.68,0006.76,0003.12
2022-04-11 21:18:00,,0809.3,4.99,0.00,26.7,26.0,00.0,35.5,28.6,07.5,0000.0,0027.81,0006.81,0003.12
2022-04-11 21:19:00,,0809.3,5.00,0.00,26.7,26.0,00.0,35.5,28.6,07.6,0000.0,0027.31,0006.75,0003.10
2022-04-11 21:20:00,,0809.2,5.01,0.00,26.7,26.0,00.0,35.5,28.6,07.7,0000.0,0027.51,0006.77,0003.10
2022-04-11 21:21:00,,0809.2,5.00,0.00,26.7,26.0,00.0,35.6,28.6,07.5,0000.0,0028.16,0006.85,0003.09
2022-04-11 21:22:00,,0809.2,4.99,0.00,26.8,26.1,00.0,35.6,28.7,07.5,0000.0,0028.31,0006.81,0003.10
2022-04-11 21:23:00,,0809.1,5.01,0.00,26.8,26.1,00.0,35.6,28.7,07.5,0000.0,0028.72,0006.88,0003.12
2022-04-11 21:24:00,,0809.0,4.99,0.00,26.8,26.1,00.0,35.6,28.7,07.4,0000.0,0029.29,0006.87,0003.13
2022-04-11 21:25:00,,0809.1,5.02,0.00,26.8,26.2,00.0,35.6,28.7,07.3,0000.0,0030.74,0006.84,0003.14
2022-04-11 21:26:00,,0809.0,4.99,0.00,26.9,26.2,00.0,35.6,28.8,07.2,0000.0,0030.65,0006.78,0003.13
2022-04-11 21:27:00,,0809.1,5.00,0.00,26.9,26.3,00.0,35.6,28.8,07.4,0000.0,0030.80,0006.76,0003.13
2022-04-11 21:28:00,,0809.1,5.00,0.00,26.9,26.3,00.0,35.7,28.8,07.9,0000.0,0031.20,0006.68,0003.12
2022-04-11 21:29:00,,0809.0,5.00,0.00,26.9,26.3,00.0,35.7,28.8,07.8,0000.0,0030.96,0006.61,0003.10
2022-04-11 21:30:00,,0809.1,4.99,0.00,26.9,26.3,00.0,35.7,28.8,07.9,0000.0,0033.11,0006.65,0003.09
2022-04-11 21:31:00,,0809.0,5.01,0.00,27.0,26.3,00.0,35.7,28.8,07.9,0000.0,0033.10,0006.65,0003.11
2022-04-11 21:32:00,,0809.0,4.98,0.00,27.0,26.3,00.0,35.7,28.8,07.4,0000.0,0032.76,0006.60,0003.12
2022-04-11 21:33:00,,0809.0,5.01,0.00,27.0,26.3,00.0,35.7,28.8,07.3,0000.0,0033.16,0006.59,0003.11
2022-04-11 21:34:00,,0809.0,5.00,0.00,27.0,26.3,00.0,35.8,28.7,07.3,0000.0,0033.07,0006.51,0003.11
2022-04-11 21:35:00,,0809.0,5.00,0.00,27.0,26.3,00.0,35.8,28.8,07.4,0000.0,0033.30,0006.52,0003.10
2022-04-11 21:36:00,,0808.9,5.01,0.00,27.0,26.3,00.0,35.8,28.8,07.6,0000.0,0032.70,0006.64,0003.09
2022-04-11 21:37:00,,0809.0,4.99,0.00,27.0,26.3,00.0,35.8,28.9,07.5,0000.0,0032.91,0006.74,0003.07
2022-04-11 21:38:00,,0809.0,5.01,0.00,27.0,26.4,00.0,35.8,28.9,07.8,0000.0,0032.73,0006.74,0003.06
2022-04-11 21:39:00,,0809.0,5.01,0.00,27.0,26.4,00.0,35.8,28.9,07.6,0000.0,0032.25,0006.77,0003.06
2022-04-11 21:40:00,,0809.0,4.99,0.00,27.0,26.4,00.0,35.8,28.9,07.8,0000.0,0034.02,0006.70,0003.06
2022-04-11 21:41:00,,0809.0,4.99,0.00,27.0,26.4,00.0,35.9,28.8,07.6,0000.0,0033.12,0006.65,0003.09
2022-04-11 21:42:00,,0809.0,4.99,0.00,27.0,26.4,00.0,35.9,28.8,07.4,0000.0,0033.45,0006.59,0003.07
2022-04-11 21:43:00,,0809.0,5.01,0.00,27.0,26.4,00.0,35.9,28.8,07.3,0000.0,0034.77,0006.57,0003.06
2022-04-11 21:44:00,,0808.9,4.99,0.00,27.0,26.4,00.0,35.9,28.8,07.3,0000.0,0035.26,0006.56,0003.08
2022-04-11 21:45:00,,0808.9,5.00,0.00,27.1,26.4,00.0,35.9,28.9,07.4,0000.0,0036.52,0006.65,0003.08
2022-04-11 21:46:00,,0808.8,5.01,0.00,27.1,26.4,00.0,35.9,28.9,07.5,0000.0,0035.01,0006.67,0003.07
2022-04-11 21:47:00,,0808.8,4.99,0.00,27.1,26.4,00.0,35.9,28.9,07.6,0000.0,0035.19,0006.61,0003.08
2022-04-11 21:48:00,,0808.9,5.01,0.00,27.1,26.4,00.0,35.9,28.9,07.6,0000.0,0035.71,0006.55,0003.08
2022-04-11 21:49:00,,0808.8,4.99,0.00,27.1,26.4,00.0,35.9,28.9,07.4,0000.0,0034.76,0006.53,0003.10
2022-04-11 21:50:00,,0808.7,5.01,0.00,27.1,26.4,00.0,36.0,28.9,07.2,0000.0,0034.60,0006.48,0003.12
2022-04-11 21:51:00,,0808.6,5.01,0.00,27.1,26.5,00.0,36.0,29.0,07.2,0000.0,0033.82,0006.54,0003.13
2022-04-11 21:52:00,,0808.6,4.98,0.00,27.1,26.5,00.0,36.0,29.0,07.3,0000.0,0033.12,0006.54,0003.13
2022-04-11 21:53:00,,0808.6,5.01,0.00,27.1,26.5,00.0,36.0,29.0,07.2,0000.0,0033.34,0006.57,0003.13
2022-04-11 21:54:00,,0808.5,4.98,0.00,27.1,26.5,00.0,36.0,29.0,07.2,0000.0,0031.21,0006.53,0003.13
2022-04-11 21:55:00,,0808.6,5.03,0.00,27.1,26.5,00.0,36.0,29.0,07.1,0000.0,0030.40,0006.58,0003.11
2022-04-11 21:56:00,,0808.5,4.98,0.00,27.1,26.5,00.0,36.0,29.0,07.1,0000.0,0028.98,0006.57,0003.10
2022-04-11 21:57:00,,0808.5,5.02,0.00,27.2,26.5,00.0,36.0,29.0,07.3,0000.0,0029.52,0006.50,0003.08
2022-04-11 21:58:00,,0808.5,4.98,0.00,27.2,26.6,00.0,36.0,29.1,07.3,0000.0,0028.70,0006.42,0003.03
2022-04-11 21:59:00,,0808.5,5.01,0.00,27.2,26.6,00.0,36.0,29.1,07.2,0000.0,0027.76,0006.42,0003.00
